Tracking 20715 objects as of 26-May-2020
HD Live streaming from Space Station
objects crossing your sky now

COSMOS 1506

Track COSMOS 1506 now!
10-day predictions
COSMOS 1506 is classified as:


NORAD ID: 14450
Int'l Code: 1983-108A
Perigee: 951.7 km
Apogee: 1,016.9 km
Inclination: 82.9 °
Period: 104.6 minutes
Semi major axis: 7355 km
RCS: 1.705 m2 (large)
Launch date: October 26, 1983
Source: Commonwealth of Independent States (former USSR) (CIS)
Launch site: PLESETSK MISSILE AND SPACE COMPLEX (PKMTR)
aabbcc
Your satellite tracking list
Your tracking list is empty




NASA's NSSDC Master Catalog

Two Line Element Set (TLE):
1 14450U 83108A   20144.88651456 +.00000014 +00000-0 -16046-5 0  9996
2 14450 082.9282 119.3179 0044346 074.3115 313.4076 13.76264133653194
Source of the keplerian elements: AFSPC